www.pogodaiklimat.ru

Погода и климат >> Архив погоды >> Россия >> Калмыкия >> Яшкуль


АРХИВ ПОГОДЫ в Яшкуле

Время (UTC), дата Ветер
(напр.,м/с)
 
Видим.   Явления Облачность Т
(С)
Тd
(С)
f
(%)
Тe
(С)
Тes
(С)
Комфортность P
(гПа)
Po
(гПа)
Тmin
(С)
Tmax
(С)
R
(мм)
R24
(мм)
S
(см)
18 18.05 ЮВ 4
{10}
20 км ясно +23.6 -0.2 21 +22 +22 комфорт 1015.0 1015.8
21 18.05 ЮВ 3 20 км ясно +18.4 +5.7 43 +19 +19 тепло 1014.5 1015.3
00 19.05 ЮВ 2 20 км ясно +14.6 +7.1 61 +14 +14 тепло 1014.5 1015.3
03 19.05 В 2 20 км 8/0
[Ac trans Ci fib]
+15.2 +8.3 63 +15 +16 по сезону 1014.9 1015.8 +13.2
06 19.05 С 5 20 км 6/0
[Ac trans]
+25.8 +9.6 36 +26 +30 жарко 1015.1 1015.9
09 19.05 СВ 3 20 км 8/0
[Ac trans Ci fib]
+29.8 +7.4 25 +29 +38 жарко 1014.2 1015.0
12 19.05 ЮЗ 3 20 км 6/0
[Ci fib]
+32.0 +6.3 20 +30 +38 жарко 1013.4 1014.1
15 19.05 С 2 20 км 9/0
[Ac trans Ci fib]
+30.8 +7.5 23 +30 +30 жарко 1013.0 1013.8 +32.5
18 19.05 СЗ 3 20 км 6/0
[Ac trans]
+26.0 +7.0 30 +26 +26 жарко 1013.9 1014.7
21 19.05 СВ 3 20 км ясно +23.4 +6.1 33 +24 +24 комфорт 1014.0 1014.8
00 20.05 С 2 20 км ясно +20.6 +7.1 42 +22 +22 комфорт 1013.6 1014.4
03 20.05 СЗ 3 20 км 9/0
[Ac und]
+20.6 +8.7 46 +22 +23 комфорт 1014.5 1015.4 +19.7
06 20.05 С 3 20 км 10/0
[Ac As]
+22.0 +8.7 43 +23 +26 комфорт 1014.5 1015.3
09 20.05 С 4
{10}
20 км 10/0
[Ac As]
+25.5 +10.2 38 +26 +30 жарко 1015.4 1016.2
12 20.05 СВ 7-12
{13}
50 км 6/0
[Ac trans]
+29.1 +8.0 27 +29 +31 жарко 1013.8 1014.6
15 20.05 В 5
{12}
20 км ясно +29.6 +5.3 21 +28 +29 жарко 1012.5 1013.3 +30.1
18 20.05 В 3 20 км 8/0
[Ac trans]
+22.5 +2.2 26 +22 +22 комфорт 1013.3 1014.1
21 20.05 В 3 20 км ясно +17.1 +6.2 49 +17 +17 тепло 1012.8 1013.6
00 21.05 СВ 2 20 км ясно +14.0 +7.9 67 +14 +14 по сезону 1012.7 1013.5
03 21.05 С 1 20 км 8/0
[Ci fib]
+15.6 +9.0 65 +16 +18 по сезону 1013.3 1014.1 +12.8
06 21.05 С 2 20 км 4/0
[Ci fib]
+25.1 +11.2 42 +26 +37 жарко 1013.1 1013.9
09 21.05 С 3 20 км 8/0
[Ac trans Ci fib]
+31.1 +7.7 23 +30 +39 жарко 1012.0 1012.8
12 21.05 З 3 20 км 8/0
[Ac trans Ci fib]
+32.9 +5.2 18 +31 +36 жарко 1011.6 1012.4
15 21.05 СЗ 9-15
{14}
20 км 8/0
[Ac trans]
+31.1 +9.6 26 +30 +31 жарко 1012.3 1013.1 +33.7
18 21.05 СЗ 6
{17}
20 км 9/0
[Ac trans]
+24.5 +9.7 39 +25 +25 комфорт 1014.8 1015.6
21 21.05 З 5
{11}
20 км 6/0
[Ac trans]
+21.3 +10.8 51 +23 +23 комфорт 1015.0 1015.8
00 22.05 СЗ 2 20 км 8/0
[Ac trans]
+20.0 +11.5 58 +22 +22 комфорт 1015.9 1016.7
03 22.05 СЗ 3 20 км 9/0
[Ac trans]
+20.8 +12.2 58 +23 +24 комфорт 1017.3 1018.1 +19.6
06 22.05 СЗ 2 20 км 10/0
[Ac As]
+24.5 +13.0 49 +27 +30 жарко 1018.6 1019.4
09 22.05 С 2 20 км 8/3 600 м
[Cb cap Ac trans]
+29.7 +10.3 30 +30 +37 жарко 1018.4 1019.2
12 22.05 ЮВ 4 20 км 8/5 600 м
[Cb cap Ac trans Ci fib]
+32.0 +10.3 26 +32 +34 жарко 1017.3 1018.1
15 22.05 В 6-12
{12}
20 км 6/0
[Ac trans Ci fib]
+32.5 -0.1 12 +29 +30 жарко 1017.6 1018.4 +33.0
18 22.05 В 4
{12}
20 км ясно +26.0 +1.4 20 +24 +24 комфорт 1018.8 1019.6
21 22.05 В 3 20 км 8/0
[Ac trans]
+21.5 +7.4 40 +22 +22 комфорт 1019.3 1020.1
00 23.05 В 2 н/о н/о +17.2 +10.1 63 +18 +18 тепло 1019.5 1020.3
03 23.05 ЮВ 1 20 км ясно +19.4 +13.8 70 +22 +24 комфорт 1019.9 1020.7 +14.9
06 23.05 В 3 20 км 3/0
[Ci fib]
+29.1 +8.2 27 +29 +38 жарко 1019.8 1020.6
09 23.05 ЮВ 9-15
{18}
20 км 4/3 1000 м
[Cu hum Ci fib]
+36.6 -2.2 8 +33 +34 жарко 1017.6 1018.3
12 23.05 В 10-17
{18}
20 км 3/0
[Ci fib]
+37.0 -2.1 8 +33 +33 жарко 1016.2 1017.0
15 23.05 ЮВ 8-15
{17}
20 км 3/0
[Ci fib]
+34.3 +4.8 16 +31 +31 жарко 1016.0 1016.8 +37.2
18 23.05 В 5
{15}
20 км 3/0
[Ac trans Ci fib]
+26.8 +12.1 40 +28 +28 жарко 1016.6 1017.4
21 23.05 В 4 20 км 3/0
[Ac trans]
+20.9 +13.4 62 +24 +24 комфорт 1016.1 1016.9
00 24.05 В 3 20 км ясно +19.3 +14.8 75 +21 +21 комфорт 1014.3 1015.1
03 24.05 ЮВ 3 20 км 3/0
[Ci fib]
+20.8 +13.4 63 +24 +25 комфорт 1013.6 1014.4 +18.3
06 24.05 ЮВ 7-12
{12}
20 км ясно +28.2 +6.9 26 +27 +31 жарко 1012.9 1013.7
09 24.05 Ю 8-13
{14}
20 км ясно +34.5 +1.1 12 +31 +34 жарко 1011.6 1012.4
12 24.05 ЮВ 7-14
{15}
20 км ясно +35.8 -0.8 10 +32 +35 жарко 1009.9 1010.7
15 24.05 Ю 4
{14}
20 км ясно +35.1 -1.1 10 +31 +32 жарко 1008.9 1009.7 +36.0
18 24.05 ЮВ 4
{10}
20 км ясно +27.6 +9.0 31 +28 +28 жарко 1010.6 1011.4
21 24.05 ЮВ 3 20 км ясно +21.9 +12.0 53 +24 +24 комфорт 1010.1 1010.9
00 25.05 З 1 20 км ясно +19.3 +11.3 60 +21 +21 комфорт 1009.8 1010.6
03 25.05 СЗ 2 20 км 9/0
[Ac trans]
+21.4 +13.6 61 +24 +25 комфорт 1009.4 1010.2 +18.7
06 25.05 СЗ 3 20 км 9/0
[Ac trans Ci fib]
+27.4 +13.2 42 +29 +35 жарко 1009.1 1009.9
09 25.05 СЗ 4 20 км 8/0
[Ac trans Ci fib]
+31.3 +11.7 30 +32 +39 жарко 1007.9 1008.7
12 25.05 СЗ 5 20 км 4/3 1000 м
[Cu hum Ac trans Ci fib]
+33.5 +9.0 22 +32 +36 жарко 1006.5 1007.3

 

Местоположение метеостанции Яшкуль (Калмыкия, Россия): широта 46.18 долгота 45.35 высота над уровнем моря -7 м.

В архиве по умолчанию представлена погода в Яшкуле за последнюю неделю. Архивные данные за месяц целиком и за предыдущие месяцы, начиная с января 2011 года, Вы можете получить, выбрав интересующий диапазон дат из раскрывающегося списка и нажав кнопку "Ввод!".


*Определитесь, кто Вы:
робот инопланетянин человек

Внимание! Время в таблицах - всемирное. Для получения местного времени необходимо прибавить поправку, которая в Яшкуле равна 3 ч.

Смотрите также архив погоды в соседних городах и на ближайших метеорологических станциях:

Погода в Утте (Калмыкия, Россия) (56 км)
Погода в Ики-Буруле (Калмыкия, Россия) (70 км)
Погода в Элисте (Калмыкия, Россия) (81 км)
Погода в Комсомольском (Калмыкия, Россия) (106 км)
Погода в Арзгире (Ставропольский край, Россия) (124 км)
Погода в Юсте (Калмыкия, Россия) (129 км)
Погода в Ремонтном (Ростовская область, Россия) (136 км)
Погода в Кетченерах (Калмыкия, Россия) (140 км)
Погода в Лимане (Астраханская область, Россия) (151 км)
Погода в Дивном (Ставропольский край, Россия) (157 км)

Пояснения к столбцам:

Ветер - указаны скорость ветра в м/с - средняя за 10 мин, порывы в срок и между сроками (в фигурных скобках) и направление, откуда дует ветер: С - северный, СВ - северо-восточный, В - восточный, ЮВ - юго-восточный, Ю - южный, ЮЗ - юго-западный, З - западный, СЗ - северо-западный.
Видимость - горизонтальная дальность видимости в метрах или километрах. При видимости от 1 до 10 км при отсутствии осадков обычно наблюдается дымка, при ухудшении видимости до 1 км и менее - туман. В сухую погоду видимость может ухудшаться дымом, пылью или мглою.
Явления - указаны атмосферные явления, наблюдавшиеся в срок или в последний час перед сроком; фигурными скобками обозначены явления, наблюдавшиеся между сроками (за 1-3 часа до срока); квадратными скобками обозначены град или гололедные отложения с указанием их диаметра в мм.
Облачность - указаны через наклонную черту общая и нижняя облачность в баллах и высота нижней границы облаков в метрах; квадратными скобками обозначены формы облаков: Ci - перистые, Cs - перисто-слоистые, Cc - перисто-кучевые, Ac - высококучевые, As - высокослоистые, Sc - слоисто-кучевые, Ns - слоисто-дождевые, Cu - кучевые, Cb - кучево-дождевые. Подробнее классификацию облаков см. в Атласе облаков (PDF).
T - Температура воздуха - температура, измеренная на высоте 2 м над землей.
Td - Температура точки росы - температура, при понижении до которой содержащийся в воздухе водяной пар достигнет насыщения.
f - Относительная влажность воздуха - влажноcть воздуха, измеренная на высоте 2 м над землей.
Te - Эффективная температура - температура, которую ощущает одетый по сезону человек в тени. Характеристика душности погоды. При расчете учитывается влияние влажности воздуха и скорости ветра на теплоощущения человека.
Tes - Эффективная температура на солнце - температура, которую ощущает человек, с поправкой на солнечный нагрев. Характеристика знойности погоды. Зависит от высоты солнца над горизонтом, облачности и скорости ветра. Ночью, в пасмурную погоду, а также при ветре 12 м/с и более поправка равна нулю.
P - Атмосферное давление - приведенное к уровню моря атмосферное давление.
Po - Атмосферное давление - измеренное на уровне метеостанции атмосферное давление.
Tmin - Минимальная температура - минимум температуры воздуха на высоте 2 м над землей.
Tmax - Максимальная температура - максимум температуры воздуха на высоте 2 м над землей.
R - Количество осадков - Количество выпавших осадков за период времени, мм. При наведении курсора мыши на число - период времени, за который выпало указанное количество осадков.
R24 - Количество осадков - Количество выпавших осадков за 24 часа, мм.
S - Снежный покров - Высота снежного покрова, см. При наведении курсора мыши на число - состояние снежного покрова и степень покрытия местности в баллах.